Location: Caltech
(34.1382°N, 118.1253°W)
Time: 03:57:32
(UTC-07:00)

Tiros 1 despin weight - All Passes

Search period start: 29 June 2016 00:00
Search period end: 09 July 2016 00:00
Orbit: 596 x 645 km, 48.2° (Epoch: 27 June)

Date Brightness Start Highest point End Pass type
(mag) Time Alt. Az. Time Alt. Az. Time Alt. Az.
29 Jun - 10:58:52 10° SW 11:03:17 72° SE 11:07:48 10° NE daylight
29 Jun - 12:41:30 10° W 12:45:14 25° NNW 12:49:02 10° NNE daylight
29 Jun - 14:25:44 10° NW 14:28:08 14° N 14:30:31 10° NNE daylight
29 Jun - 16:07:46 10° NNW 16:11:09 20° NNE 16:14:33 10° ENE daylight
29 Jun - 17:48:47 10° NW 17:53:25 67° NE 17:58:05 10° ESE daylight
29 Jun - 19:31:21 10° W 19:34:42 19° SW 19:38:03 10° S daylight
30 Jun - 09:35:53 10° S 09:39:17 22° SE 09:42:43 10° E daylight
30 Jun - 11:16:12 10° WSW 11:20:35 56° NW 11:25:03 10° NE daylight
30 Jun - 12:59:51 10° WNW 13:02:57 18° NNW 13:06:05 10° NNE daylight
30 Jun - 14:43:33 10° NNW 14:46:01 14° N 14:48:29 10° NE daylight
30 Jun - 16:24:48 10° NW 16:28:49 28° NNE 16:32:52 10° E daylight
30 Jun - 18:06:05 10° WNW 18:10:41 62° SW 18:15:19 10° SE daylight
01 Jul - 09:52:05 10° SSW 09:56:20 47° SE 10:00:39 10° ENE daylight
01 Jul - 11:34:02 10° W 11:38:03 32° NNW 11:42:07 10° NE daylight
01 Jul - 13:18:16 10° NW 13:20:46 14° N 13:23:18 10° NNE daylight
01 Jul - 15:00:52 10° NNW 15:03:51 17° NNE 15:06:51 10° NE daylight
01 Jul - 16:41:51 10° NW 16:46:20 47° NNE 16:50:51 10° ESE daylight
01 Jul - 18:23:47 10° WNW 18:27:48 29° SW 18:31:50 10° SSE daylight
02 Jul - 08:30:08 10° SSE 08:32:27 14° SE 08:34:46 10° E daylight
02 Jul - 10:09:06 10° SW 10:13:32 81° NW 10:18:03 10° NE daylight
02 Jul - 11:52:15 10° WNW 11:55:41 21° NNW 11:59:09 10° NNE daylight
02 Jul - 13:36:21 10° NNW 13:38:39 14° N 13:40:58 10° NNE daylight
02 Jul - 15:17:56 10° NNW 15:21:36 23° NNE 15:25:17 10° ENE daylight
02 Jul - 16:59:02 10° NW 17:03:40 90° WNW 17:08:21 10° SE daylight
02 Jul - 18:42:32 10° W 18:44:47 13° SW 18:47:01 10° SSW daylight
03 Jul - 08:45:32 10° SSW 08:49:26 31° SE 08:53:22 10° ENE daylight
03 Jul - 10:26:41 10° WSW 10:30:54 42° NNW 10:35:12 10° NE daylight
03 Jul - 12:10:41 10° NW 12:13:26 16° NNW 12:16:14 10° NNE daylight
03 Jul - 13:53:54 10° NNW 13:56:32 15° N 13:59:11 10° NE daylight
03 Jul - 15:34:57 10° NW 15:39:11 35° NNE 15:43:27 10° E daylight
03 Jul - 17:16:28 10° WNW 17:20:51 43° SW 17:25:17 10° SSE daylight
04 Jul - 09:02:10 10° SW 09:06:32 68° SE 09:11:00 10° ENE daylight
04 Jul - 10:44:43 10° W 10:48:27 25° NNW 10:52:14 10° NNE daylight
04 Jul - 12:29:00 10° NW 12:31:18 14° N 12:33:37 10° NNE daylight
04 Jul - 14:11:04 10° NNW 14:14:20 19° NNE 14:17:37 10° ENE daylight
04 Jul - 15:52:02 10° NW 15:56:37 63° NE 16:01:14 10° ESE daylight
04 Jul - 17:34:30 10° W 17:37:55 20° SW 17:41:20 10° S daylight
05 Jul - 07:39:18 10° S 07:42:33 20° SE 07:45:50 10° E daylight
05 Jul - 09:19:28 10° WSW 09:23:49 59° NW 09:28:15 10° NE daylight
05 Jul - 11:03:03 10° WNW 11:06:08 18° NNW 11:09:15 10° NNE daylight
05 Jul - 12:46:50 10° NNW 12:49:11 14° N 12:51:33 10° NE daylight
05 Jul - 14:28:05 10° NW 14:32:00 27° NNE 14:35:57 10° E daylight
05 Jul - 16:09:19 10° WNW 16:13:53 65° SW 16:18:29 10° SE daylight
06 Jul - 07:55:24 10° SSW 07:59:36 44° SE 08:03:50 10° ENE daylight
06 Jul - 09:37:16 10° W 09:41:16 32° NNW 09:45:20 10° NE daylight
06 Jul - 11:21:30 10° NW 11:23:57 14° N 11:26:27 10° NNE daylight
06 Jul - 13:04:10 10° NNW 13:07:01 16° NNE 13:09:55 10° NE daylight
06 Jul - 14:45:07 10° NW 14:49:31 45° NNE 14:53:58 10° ESE daylight
06 Jul - 16:26:58 10° WNW 16:31:00 30° SW 16:35:04 10° SSE daylight
07 Jul - 06:33:40 10° SSE 06:35:43 13° SE 06:37:47 10° E daylight
07 Jul - 08:12:22 10° SW 08:16:47 85° NW 08:21:15 10° NE daylight
07 Jul - 09:55:28 10° WNW 09:58:53 21° NNW 10:02:20 10° NNE daylight
07 Jul - 11:39:38 10° NNW 11:41:50 13° N 11:44:03 10° NNE daylight
07 Jul - 13:21:14 10° NNW 13:24:46 22° NNE 13:28:21 10° ENE daylight
07 Jul - 15:02:16 10° NW 15:06:52 86° NE 15:11:31 10° SE daylight
07 Jul - 16:45:36 10° W 16:48:00 14° SW 16:50:24 10° SSW daylight
08 Jul - 06:48:53 10° SSW 06:52:41 29° SE 06:56:31 10° ENE daylight
08 Jul - 08:29:55 10° WSW 08:34:08 43° NNW 08:38:24 10° NE daylight
08 Jul - 10:13:53 10° NW 10:16:38 16° NNW 10:19:23 10° NNE daylight
08 Jul - 11:57:12 10° NNW 11:59:42 14° N 12:02:13 10° NE daylight
08 Jul - 13:38:14 10° NW 13:42:22 33° NNE 13:46:33 10° E daylight
08 Jul - 15:19:41 10° WNW 15:24:04 45° SW 15:28:29 10° SSE daylight
